timestamp,surface_pressure_avg,surface_temp_avg,battery_voltage,lat,long
2021-12-01 00:19:00+00:00,211.7881,8.6,12.57,47.84626,-54.09684
2021-12-01 00:29:00+00:00,210.6398,8.5,12.57,47.84626,-54.09684
2021-12-01 00:39:00+00:00,202.3331,8.5,12.57,47.84626,-54.09684
2021-12-01 00:49:00+00:00,191.7132,8.5,12.57,47.84626,-54.09684
2021-12-01 00:59:00+00:00,194.4182,8.4,12.57,47.84626,-54.09684
2021-12-01 01:09:00+00:00,198.8264,8.4,12.57,47.84626,-54.09684
2021-12-01 01:19:00+00:00,191.2781,8.45,12.57,47.84626,-54.09684
2021-12-01 01:29:00+00:00,183.6264,8.5,12.57,47.84626,-54.09684
2021-12-01 01:39:00+00:00,181.9781,8.5,12.57,47.84626,-54.09684
2021-12-01 01:49:00+00:00,175.8881,8.5,12.57,47.84626,-54.09684
2021-12-01 01:59:00+00:00,169.0965,8.5,12.57,47.84626,-54.09684
2021-12-01 02:09:00+00:00,169.6865,8.57,12.57,47.84626,-54.09684
2021-12-01 02:19:00+00:00,168.7048,8.59,12.57,47.84626,-54.09684
2021-12-01 02:29:00+00:00,165.7948,8.6,12.57,47.84626,-54.09684
2021-12-01 02:39:00+00:00,171.6465,8.5,12.57,47.84626,-54.09684
2021-12-01 02:49:00+00:00,173.9948,8.4,12.57,47.84626,-54.09684
2021-12-01 02:59:00+00:00,165.6532,8.4,12.57,47.84626,-54.09684
2021-12-01 03:09:00+00:00,165.8915,8.4,12.57,47.84626,-54.09684
2021-12-01 03:19:00+00:00,173.3431,8.4,12.57,47.84626,-54.09684
2021-12-01 03:29:00+00:00,174.4098,8.43,12.57,47.84626,-54.09684
2021-12-01 03:39:00+00:00,175.9998,8.48,12.57,47.84626,-54.09684
2021-12-01 03:49:00+00:00,183.6732,8.47,12.57,47.84626,-54.09684
2021-12-01 03:59:00+00:00,192.8148,8.45,12.57,47.84626,-54.09684
2021-12-01 04:09:00+00:00,197.9381,8.47,12.57,47.84626,-54.09684
2021-12-01 04:19:00+00:00,203.6131,8.49,12.57,47.84626,-54.09684
2021-12-01 04:29:00+00:00,216.4781,8.5,12.57,47.84626,-54.09684
2021-12-01 04:39:00+00:00,225.4832,8.5,12.57,47.84626,-54.09684
2021-12-01 04:49:00+00:00,226.6698,8.5,12.57,47.84626,-54.09684
2021-12-01 04:59:00+00:00,231.7548,8.5,12.57,47.84626,-54.09684
2021-12-01 05:09:00+00:00,244.5147,8.5,12.57,47.84626,-54.09684
2021-12-01 05:19:00+00:00,250.0448,8.5,12.57,47.84626,-54.09684
2021-12-01 05:29:00+00:00,254.8631,8.5,12.57,47.84626,-54.09684
2021-12-01 05:39:00+00:00,266.7814,8.5,12.57,47.84626,-54.09684
2021-12-01 05:49:00+00:00,271.4497,8.5,12.57,47.84626,-54.09684
2021-12-01 05:59:00+00:00,268.0247,8.5,12.57,47.84626,-54.09684
2021-12-01 06:09:00+00:00,277.2014,8.55,12.57,47.84626,-54.09684
2021-12-01 06:19:00+00:00,288.5413,8.5,12.57,47.84626,-54.09684
2021-12-01 06:29:00+00:00,285.5397,8.49,12.57,47.84626,-54.09684
2021-12-01 06:39:00+00:00,286.843,8.5,12.57,47.84626,-54.09684
2021-12-01 06:49:00+00:00,298.0563,8.54,12.57,47.84626,-54.09684
2021-12-01 06:59:00+00:00,305.853,8.5,12.57,47.84626,-54.09684
2021-12-01 07:09:00+00:00,305.1697,8.5,12.57,47.84626,-54.09684
2021-12-01 07:19:00+00:00,311.9047,8.6,12.57,47.84626,-54.09684
2021-12-01 07:29:00+00:00,317.5746,8.5,12.57,47.84626,-54.09684
2021-12-01 07:39:00+00:00,322.168,8.5,12.57,47.84626,-54.09684
2021-12-01 07:49:00+00:00,324.5896,8.6,12.57,47.84626,-54.09684
2021-12-01 07:59:00+00:00,333.213,8.5,12.57,47.84626,-54.09684
2021-12-01 08:09:00+00:00,338.728,8.5,12.57,47.84626,-54.09684
2021-12-01 08:19:01+00:00,339.3264,8.6,12.57,47.84626,-54.09684
2021-12-01 08:29:01+00:00,339.5847,8.6,12.57,47.84626,-54.09684
2021-12-01 08:39:01+00:00,341.2413,8.5,12.57,47.84626,-54.09684
2021-12-01 08:49:01+00:00,347.4163,8.58,12.57,47.84626,-54.09684
2021-12-01 08:59:01+00:00,350.86300000000006,8.6,12.57,47.84626,-54.09684
2021-12-01 09:09:01+00:00,352.8463,8.5,12.57,47.84626,-54.09684
2021-12-01 09:19:00+00:00,352.61800000000005,8.55,12.57,47.84626,-54.09684
2021-12-01 09:29:00+00:00,352.56300000000016,8.6,12.57,47.84626,-54.09684
2021-12-01 09:39:00+00:00,353.6096,8.6,12.57,47.84626,-54.09684
2021-12-01 09:49:00+00:00,349.1896,8.5,12.57,47.84626,-54.09684
2021-12-01 09:59:00+00:00,347.2247,8.58,12.57,47.84626,-54.09684
2021-12-01 10:09:00+00:00,348.1663,8.58,12.57,47.84626,-54.09684
2021-12-01 10:19:00+00:00,348.4763,8.52,12.49,47.84626,-54.09684
2021-12-01 10:29:00+00:00,342.9363,8.55,12.49,47.84626,-54.09684
2021-12-01 10:39:00+00:00,337.0197,8.55,12.49,47.84626,-54.09684
2021-12-01 10:49:00+00:00,331.5697,8.59,12.49,47.84626,-54.09684
2021-12-01 10:59:00+00:00,325.078,8.53,12.49,47.84626,-54.09684
2021-12-01 11:09:00+00:00,323.6963,8.5,12.49,47.84626,-54.09684
2021-12-01 11:19:01+00:00,321.8929,8.5,12.49,47.84626,-54.09684
2021-12-01 11:29:01+00:00,314.1496,8.5,12.49,47.84626,-54.09684
2021-12-01 11:39:01+00:00,306.1563,8.45,12.49,47.84626,-54.09684
2021-12-01 11:49:01+00:00,304.0831,8.2,12.49,47.84626,-54.09684
2021-12-01 11:59:01+00:00,296.4914,7.9,12.49,47.84626,-54.09684
2021-12-01 12:09:01+00:00,288.9097,8.12,12.49,47.84626,-54.09684
2021-12-01 12:19:00+00:00,282.2064,7.8,13.53,47.84626,-54.09684
2021-12-01 12:29:00+00:00,274.1747,7.93,13.53,47.84626,-54.09684
2021-12-01 12:39:00+00:00,262.6664,8.19,13.53,47.84626,-54.09684
2021-12-01 12:49:00+00:00,250.6864,8.1,13.53,47.84626,-54.09684
2021-12-01 12:59:00+00:00,246.5681,8.04,13.53,47.84626,-54.09684
2021-12-01 13:09:00+00:00,244.9831,8.2,13.53,47.84626,-54.09684
2021-12-01 13:19:01+00:00,238.8564,8.2,14.4,47.84626,-54.09684
2021-12-01 13:29:01+00:00,232.9881,8.1,14.4,47.84626,-54.09684
2021-12-01 13:39:01+00:00,235.1282,8.1,14.4,47.84626,-54.09684
2021-12-01 13:49:01+00:00,235.7731,8.0,14.4,47.84626,-54.09684
2021-12-01 13:59:01+00:00,229.2198,8.04,14.4,47.84626,-54.09684
2021-12-01 14:09:01+00:00,225.3398,8.28,14.4,47.84626,-54.09684
2021-12-01 14:19:01+00:00,230.9131,8.3,14.16,47.84626,-54.09684
2021-12-01 14:29:01+00:00,228.2048,8.3,14.16,47.84626,-54.09684
2021-12-01 14:39:01+00:00,219.2614,8.33,14.16,47.84626,-54.09684
2021-12-01 14:49:01+00:00,218.1348,8.4,14.16,47.84626,-54.09684
2021-12-01 14:59:01+00:00,219.4615,8.4,14.16,47.84626,-54.09684
2021-12-01 15:09:01+00:00,215.9914,8.3,14.16,47.84626,-54.09684
2021-12-01 15:19:01+00:00,213.0481,8.3,13.84,47.84626,-54.09684
2021-12-01 15:29:01+00:00,215.2332,8.36,13.84,47.84626,-54.09684
2021-12-01 15:39:01+00:00,214.9164,8.3,13.84,47.84626,-54.09684
2021-12-01 15:49:01+00:00,213.7881,8.2,13.84,47.84626,-54.09684
2021-12-01 15:59:01+00:00,215.5364,8.12,13.84,47.84626,-54.09684
2021-12-01 16:09:01+00:00,218.2681,8.1,13.84,47.84626,-54.09684
2021-12-01 16:19:01+00:00,220.0248,7.97,14.4,47.84626,-54.09684
2021-12-01 16:29:01+00:00,225.9514,8.0,14.4,47.84626,-54.09684
2021-12-01 16:39:01+00:00,231.0531,8.0,14.4,47.84626,-54.09684
2021-12-01 16:49:01+00:00,234.6298,8.0,14.4,47.84626,-54.09684
2021-12-01 16:59:01+00:00,238.9832,8.0,14.4,47.84626,-54.09684
2021-12-01 17:09:01+00:00,244.6364,8.0,14.4,47.84626,-54.09684
2021-12-01 17:19:00+00:00,246.0447,8.0,13.92,47.84626,-54.09684
2021-12-01 17:29:00+00:00,249.0497,7.9,13.92,47.84626,-54.09684
2021-12-01 17:39:00+00:00,253.9381,7.96,13.92,47.84626,-54.09684
2021-12-01 17:49:00+00:00,260.9564,8.0,13.92,47.84626,-54.09684
2021-12-01 17:59:00+00:00,260.7531,7.95,13.92,47.84626,-54.09684
2021-12-01 18:09:00+00:00,263.6064,7.95,13.92,47.84626,-54.09684
2021-12-01 18:19:01+00:00,271.028,7.95,13.84,47.84626,-54.09684
2021-12-01 18:29:01+00:00,276.6115,8.12,13.84,47.84626,-54.09684
2021-12-01 18:39:01+00:00,279.4764,8.2,13.84,47.84626,-54.09684
2021-12-01 18:49:01+00:00,283.1848,8.34,13.84,47.84626,-54.09684
2021-12-01 18:59:01+00:00,287.263,8.4,13.84,47.84626,-54.09684
2021-12-01 19:09:01+00:00,292.2213,8.4,13.84,47.84626,-54.09684
2021-12-01 19:19:00+00:00,299.418,8.4,13.92,47.84626,-54.09684
2021-12-01 19:29:00+00:00,305.0164,8.41,13.92,47.84626,-54.09684
2021-12-01 19:39:00+00:00,309.458,8.4,13.92,47.84626,-54.09684
2021-12-01 19:49:00+00:00,321.673,8.4,13.92,47.84626,-54.09684
2021-12-01 19:59:00+00:00,334.083,8.4,13.92,47.84626,-54.09684
2021-12-01 20:09:00+00:00,342.2530000000001,8.4,13.92,47.84626,-54.09684
2021-12-01 20:19:01+00:00,351.1963,8.3,13.44,47.84626,-54.09684
2021-12-01 20:29:01+00:00,358.5313,8.39,13.44,47.84626,-54.09684
2021-12-01 20:39:01+00:00,358.8879,8.5,13.44,47.84626,-54.09684
2021-12-01 20:49:01+00:00,356.0646,8.5,13.44,47.84626,-54.09684
2021-12-01 20:59:01+00:00,362.228,8.55,13.44,47.84626,-54.09684
2021-12-01 21:09:01+00:00,373.5679,8.5,13.44,47.84626,-54.09684
2021-12-01 21:19:00+00:00,372.3463,8.5,13.05,47.84626,-54.09684
2021-12-01 21:29:00+00:00,360.908,8.5,13.05,47.84626,-54.09684
2021-12-01 21:39:00+00:00,368.2996,8.5,13.05,47.84626,-54.09684
2021-12-01 21:49:00+00:00,378.4512,8.5,13.05,47.84626,-54.09684
2021-12-01 21:59:00+00:00,369.2496,8.5,13.05,47.84626,-54.09684
2021-12-01 22:09:00+00:00,364.6529,8.5,13.05,47.84626,-54.09684
2021-12-01 22:19:00+00:00,373.05300000000005,8.5,12.81,47.84626,-54.09684
2021-12-01 22:29:00+00:00,369.7946,8.5,12.81,47.84626,-54.09684
2021-12-01 22:39:00+00:00,349.9546,8.5,12.81,47.84626,-54.09684
2021-12-01 22:49:00+00:00,343.7429,8.5,12.81,47.84626,-54.09684
2021-12-01 22:59:00+00:00,342.9679,8.4,12.81,47.84626,-54.09684
2021-12-01 23:09:00+00:00,332.0797,8.55,12.81,47.84626,-54.09684
2021-12-01 23:19:00+00:00,321.9496,8.57,12.65,47.84626,-54.09684
2021-12-01 23:29:00+00:00,320.8647,8.5,12.65,47.84626,-54.09684
2021-12-01 23:39:00+00:00,312.2947,8.5,12.65,47.84626,-54.09684
2021-12-01 23:49:00+00:00,301.423,8.49,12.65,47.84626,-54.09684
2021-12-01 23:59:00+00:00,297.9047,8.5,12.65,47.84626,-54.09684
